Overview Statistics Trail Chart Weather Telemetry Raw packets
 

This is the latest recevied weather packets stored in our database for station/object 4S6DRJ-13. If no packets are shown the sender has not sent any weather packets the latest 10 day(s).

<< 275 276 277 278 279 280 281 >>
Time Temp. Humidity Pressure Rain* Wind** Luminosity Snow
1788064714 30.56° C 72% 1011 hPa 0 mm 2.68 m/s, 184° 386 W/m² -
1788064652 30.56° C 74% 1010.9 hPa 0 mm 1.34 m/s, 141° 560 W/m² -
1788064591 31.11° C 74% 1010.9 hPa 0 mm 0.89 m/s, 207° 892 W/m² -
1788064530 31.11° C 73% 1010.9 hPa 0 mm 2.24 m/s, 230° 363 W/m² -
1788064469 30.56° C 73% 1011.1 hPa 0 mm 1.79 m/s, 243° 409 W/m² -
1788064408 30.56° C 73% 1011 hPa 0 mm 0.45 m/s, 233° 420 W/m² -
1788064346 30.56° C 72% 1011 hPa 0 mm 0.89 m/s, 323° 423 W/m² -
1788064285 30.56° C 72% 1011 hPa 0 mm 1.34 m/s, 69° 912 W/m² -
1788064224 30.56° C 72% 1010.9 hPa 0 mm 0.45 m/s, 351° 907 W/m² -
1788064163 30.56° C 72% 1011 hPa 0 mm 1.34 m/s, 255° 902 W/m² -
1788064102 30.56° C 72% 1010.9 hPa 0 mm 0.89 m/s, 317° 424 W/m² -
1788064041 30.56° C 72% 1011 hPa 0 mm 2.24 m/s, 234° 392 W/m² -
1788063980 30.56° C 71% 1010.9 hPa 0 mm 2.24 m/s, 173° 323 W/m² -
1788063919 30.56° C 72% 1010.9 hPa 0 mm 2.24 m/s, 223° 648 W/m² -
1788063858 30.56° C 72% 1011.1 hPa 0 mm 1.34 m/s, 205° 552 W/m² -
1788063797 30.56° C 72% 1010.9 hPa 0 mm 0.89 m/s, 156° 891 W/m² -
1788063736 30.56° C 72% 1011.1 hPa 0 mm 0.89 m/s, 209° 932 W/m² -
1788063676 30.56° C 71% 1011 hPa 0 mm 3.58 m/s, 301° 951 W/m² -
1788063615 30.56° C 73% 1011 hPa 0 mm 2.68 m/s, 71° 563 W/m² -
1788063554 30.56° C 72% 1010.9 hPa 0 mm 2.68 m/s, 305° 862 W/m² -
1788063493 30.56° C 72% 1011.2 hPa 0 mm 2.24 m/s, 303° 866 W/m² -
1788063432 30.56° C 73% 1011 hPa 0 mm 2.24 m/s, 288° 603 W/m² -
1788063371 30.56° C 73% 1011 hPa 0 mm 0.89 m/s, 302° 861 W/m² -
1788063310 30.56° C 73% 1010.8 hPa 0 mm 1.34 m/s, 153° 825 W/m² -
1788063249 30.56° C 73% 1011 hPa 0 mm 1.79 m/s, 174° 839 W/m² -

* Rain latest hour (hover to see other rain measurements)
** Current wind speed in m/s (hover to see current wind gust speed)